User: anonymous   Login
Location: Unspecified
(0.0000°N, 0.0000°E)
Time: 19:25:55
(UTC+00:00)
Language:

AGGIESAT 4 - Orbit

View from above orbital plane
View from above orbital plane
View from above satellite
View from above satellite

Ground track
Ground track

The orbit data is extracted from the following two-line orbital elements,

1 41314U 98067HQ  17164.58972946 +.11750698 +12645-4 +18149-3 0  9997
2 41314 051.6052 348.7173 0009415 280.9513 079.0457 16.47784496078591
Epoch (UTC): 13 June 2017 14:09:12
Eccentricity: 0.0009415
inclination: 51.6052°
perigee height: 139 km
apogee height: 151 km
right ascension of ascending node: 348.7173°
argument of perigee: 280.9513°
revolutions per day: 16.47784496
mean anomaly at epoch: 79.0457°
orbit number at epoch: 7859

The dashed part of the orbit path shows where the satellite is in the earth's shadow,  

DLR